Alice Springs, Australia

11:10 AM ACST on December 07, 2019 (GMT +0930)
Alice Springs

Weather History for YBAS - August, 2019

Change the Weather History Date:

Monday, August 19, 2019

  Actual Average Record
Temperature  
Mean Temperature 50 °F -  
Max Temperature 60 °F 77 °F 87 °F (1998)
Min Temperature 40 °F 47 °F 31 °F (2012)
Degree Days  
Heating Degree Days 15    
Moisture  
Dew Point 24 °F    
Average Humidity 33    
Maximum Humidity 53    
Minimum Humidity 15    
Precipitation  
Precipitation 0.00 in 0.01 in - ()
Sea Level Pressure  
Sea Level Pressure 30.38 in    
Wind  
Wind Speed 10 mph ()    
Max Wind Speed 18 mph    
Max Gust Speed -    
Visibility 6.2 miles    
Events      
Averages and records for this station are not official NWS values.
T = Trace of Precipitation, MM = Missing Value Source: Averaged Metar Reports

Daily Weather History Graph

Daily Weather History Graph

Search for Another Location

Airport or City:

Astronomy

Aug. 19, 2019 Rise Set
Actual Time 6:57 AM ACST 6:18 PM ACST
Civil Twilight 6:34 AM ACST 6:41 PM ACST
Nautical Twilight 6:08 AM ACST 7:08 PM ACST
Astronomical Twilight 5:41 AM ACST 7:35 PM ACST
Moon 9:26 PM ACST (8/19) 9:12 AM ACST (8/19)
Length of Visible Light 12h 07m
Length of Day
11h 21m
Waning Gibbous, 89% of the Moon is Illuminated
Aug 19
Waning Gibbous
Aug 24
Last Quarter
Aug 30
New
Sep 6
First Quarter
Sep 14
Full

Hourly Weather History & Observations

Time (ACST) Temp. Windchill Dew Point Humidity Pressure Visibility Wind Dir Wind Speed Gust Speed Precip Events Conditions
12:00 AM 47 °F - 17 °F 18% 30.30 in - South 8.1 mph - -   Clear
12:00 AM 46.4 °F 42.4 °F 17.6 °F 32% 30.30 in 6.2 mi South 8.1 mph - N/A   Unknown
12:30 AM 45 °F - 17 °F 19% 30.30 in - South 4.6 mph - -  
12:30 AM 44.6 °F 42.2 °F 15.8 °F 31% 30.30 in 6.2 mi South 4.6 mph - N/A   Unknown
1:00 AM 44.6 °F 41.4 °F 15.8 °F 31% 30.30 in 6.2 mi South 5.8 mph - N/A   Unknown
1:30 AM 44.6 °F 40.7 °F 15.8 °F 31% 30.30 in 6.2 mi South 6.9 mph - N/A   Unknown
2:00 AM 48.2 °F - 17.6 °F 30% 30.30 in 6.2 mi SSE 10.4 mph - N/A   Unknown
2:30 AM 49 °F - 19 °F 18% 30.31 in - SSE 11.5 mph - -  
2:30 AM 50.0 °F - 19.4 °F 30% 30.33 in 6.2 mi SSE 11.5 mph - N/A   Unknown
3:00 AM 47 °F - 20 °F 22% 30.31 in - SSE 9.2 mph - -   Clear
3:00 AM 46.4 °F 41.9 °F 19.4 °F 34% 30.33 in 6.2 mi SSE 9.2 mph - N/A   Unknown
3:30 AM 47 °F - 22 °F 25% 30.31 in - SSE 9.2 mph - -  
3:30 AM 48.2 °F - 23.0 °F 37% 30.33 in 6.2 mi SSE 9.2 mph - N/A   Unknown
4:00 AM 46.4 °F 42.4 °F 23.0 °F 40% 30.33 in 6.2 mi SSE 8.1 mph - N/A   Unknown
4:30 AM 44.6 °F 40.7 °F 23.0 °F 43% 30.33 in 6.2 mi SSE 6.9 mph - N/A   Unknown
5:00 AM 41.0 °F 36.4 °F 23.0 °F 49% 30.33 in 6.2 mi SSE 6.9 mph - N/A   Unknown
5:30 AM 41.0 °F 36.4 °F 23.0 °F 49% 30.36 in 6.2 mi South 6.9 mph - N/A   Unknown
6:00 AM 42 °F - 24 °F 36% 30.35 in - SSE 8.1 mph - -   Clear
6:00 AM 42.8 °F 38.0 °F 24.8 °F 49% 30.36 in 6.2 mi SSE 8.1 mph - N/A   Unknown
6:30 AM 41 °F - 25 °F 41% 30.37 in - SSE 8.1 mph - -  
6:30 AM 41.0 °F 35.8 °F 24.8 °F 53% 30.39 in 6.2 mi SSE 8.1 mph - N/A   Unknown
7:00 AM 42.8 °F 38.0 °F 26.6 °F 53% 30.39 in 6.2 mi SE 8.1 mph - N/A   Unknown
7:30 AM 44.6 °F 40.2 °F 28.4 °F 53% 30.39 in 6.2 mi SE 8.1 mph - N/A   Unknown
8:30 AM 48.2 °F - 28.4 °F 46% 30.42 in 6.2 mi SE 13.8 mph - N/A   Unknown
9:00 AM 49 °F - 29 °F 34% 30.43 in - ESE 18.4 mph - -   Clear
9:00 AM 50.0 °F - 28.4 °F 43% 30.45 in 6.2 mi ESE 18.4 mph - N/A   Unknown
9:30 AM 51 °F - 30 °F 33% 30.44 in - SE 17.3 mph - -  
9:30 AM 51.8 °F - 30.2 °F 44% 30.45 in 6.2 mi SE 17.3 mph - N/A   Unknown
10:30 AM 51.8 °F - 30.2 °F 44% 30.45 in 6.2 mi SE 17.3 mph - N/A   Unknown
11:00 AM 51.8 °F - 30.2 °F 44% 30.45 in 6.2 mi SE 16.1 mph - N/A   Unknown
11:30 AM 54 °F - 29 °F 26% 30.43 in - SE 18.4 mph - -  
11:30 AM 53.6 °F - 28.4 °F 38% 30.42 in 6.2 mi SE 18.4 mph - N/A   Unknown
12:00 PM 55 °F - 30 °F 26% 30.42 in - SE 16.1 mph - -   Clear
12:00 PM 55.4 °F - 30.2 °F 38% 30.42 in 6.2 mi SE 16.1 mph - N/A   Unknown
12:30 PM 57 °F - 29 °F 23% 30.40 in - SE 17.3 mph - -  
12:30 PM 57.2 °F - 30.2 °F 36% 30.42 in 6.2 mi SE 17.3 mph - N/A   Unknown
1:00 PM 57.2 °F - 28.4 °F 33% 30.39 in 6.2 mi SE 15.0 mph - N/A   Unknown
1:30 PM 57.2 °F - 28.4 °F 33% 30.39 in 6.2 mi ESE 16.1 mph - N/A   Unknown
2:00 PM 59.0 °F - 28.4 °F 31% 30.36 in 6.2 mi SSE 16.1 mph - N/A   Unknown
2:30 PM 58 °F - 26 °F 17% 30.36 in - SSE 16.1 mph - -  
2:30 PM 57.2 °F - 24.8 °F 29% 30.36 in 6.2 mi SSE 16.1 mph - N/A   Unknown
3:00 PM 59 °F - 26 °F 17% 30.35 in - ESE 15.0 mph - -   Clear
3:00 PM 59.0 °F - 24.8 °F 27% 30.36 in 6.2 mi ESE 15.0 mph - N/A   Unknown
3:30 PM 59 °F - 24 °F 15% 30.34 in - SE 16.1 mph - -  
3:30 PM 59.0 °F - 24.8 °F 27% 30.33 in 6.2 mi SE 16.1 mph - N/A   Unknown
4:00 PM 60.8 °F - 24.8 °F 25% 30.33 in 6.2 mi ESE 17.3 mph - N/A   Unknown
4:30 PM 59.0 °F - 23.0 °F 25% 30.36 in 6.2 mi SE 15.0 mph - N/A   Unknown
5:00 PM 59.0 °F - 24.8 °F 27% 30.36 in 6.2 mi SE 16.1 mph - N/A   Unknown
5:30 PM 57 °F - 24 °F 16% 30.35 in - SSE 17.3 mph - -  
5:30 PM 57.2 °F - 23.0 °F 27% 30.36 in 6.2 mi SSE 17.3 mph - N/A   Unknown
6:00 PM 56 °F - 23 °F 16% 30.36 in - SE 15.0 mph - -   Clear
6:00 PM 55.4 °F - 23.0 °F 29% 30.36 in 6.2 mi SE 15.0 mph - N/A   Unknown
6:30 PM 55 °F - 23 °F 17% 30.37 in - SE 13.8 mph - -  
6:30 PM 55.4 °F - 23.0 °F 29% 30.39 in 6.2 mi SE 13.8 mph - N/A   Unknown
7:00 PM 53.6 °F - 23.0 °F 30% 30.39 in 6.2 mi SE 10.4 mph - N/A   Unknown
7:30 PM 53.6 °F - 24.8 °F 33% 30.42 in 6.2 mi SE 10.4 mph - N/A   Unknown
8:00 PM 51.8 °F - 23.0 °F 33% 30.42 in 6.2 mi SE 9.2 mph - N/A   Unknown
8:30 PM 50 °F - 23 °F 23% 30.43 in - SE 6.9 mph - -  
8:30 PM 50.0 °F - 23.0 °F 35% 30.45 in 6.2 mi SE 6.9 mph - N/A   Unknown
9:00 PM 47 °F - 22 °F 25% 30.44 in - SSE 6.9 mph - -   Clear
9:00 PM 46.4 °F 42.9 °F 23.0 °F 40% 30.45 in 6.2 mi SSE 6.9 mph - N/A   Unknown
9:30 PM 45 °F - 22 °F 27% 30.45 in - SSE 8.1 mph - -  
9:30 PM 44.6 °F 40.2 °F 21.2 °F 39% 30.45 in 6.2 mi SSE 8.1 mph - N/A   Unknown
10:00 PM 44.6 °F 40.2 °F 23.0 °F 43% 30.45 in 6.2 mi SSE 8.1 mph - N/A   Unknown
10:30 PM 42.8 °F 38.6 °F 23.0 °F 46% 30.48 in 6.2 mi SSE 6.9 mph - N/A   Unknown
11:00 PM 42.8 °F 38.6 °F 23.0 °F 46% 30.48 in 6.2 mi SSE 6.9 mph - N/A   Unknown
11:30 PM 42 °F - 23 °F 33% 30.46 in - SSE 6.9 mph - -  
11:30 PM 42.8 °F 38.6 °F 23.0 °F 46% 30.48 in 6.2 mi SSE 6.9 mph - N/A   Unknown